Location: Unspecified
(0.0000°N, 0.0000°E)
Time: 03:54:42
(UTC+00:00)

ISS - Pass Details

Date: 22 September 2017
Orbit: 401 x 407 km, 51.6° (Epoch: 23 September)

Event Time Altitude Azimuth Distance (km) Brightness Sun altitude
Rises 05:20:17 0° 351° (N) 2,308 -0.1 -8.1°
Reaches altitude 10° 05:22:56 10° 14° (NNE) 1,452 -0.8 -7.5°
Maximum altitude 05:25:00 16° 54° (NE) 1,157 -0.7 -6.9°
Drops below altitude 10° 05:27:04 10° 94° (E) 1,455 0.8 -6.4°
Sets 05:29:44 0° 117° (ESE) 2,316 1.3 -5.8°
